<?xml version="1.0" encoding="UTF-8" standalone="no" ?>
<gpx xmlns="http://www.topografix.com/GPX/1/1" xmlns:xsi="http://www.w3.org/2001/XMLSchema-instance" xsi:schemaLocation="http://www.topografix.com/GPX/1/1 http://www.topografix.com/GPX/1/1/gpx.xsd" version="1.1" creator="VisuGPX - https://www.visugpx.com">
  <metadata>
    <name>Vals tes tinaux laulagnet thieure</name>
    <desc><![CDATA[grp_trc:]]></desc>
  </metadata>
  <trk>
    <name><![CDATA[Vals, les Tineaux, L'Aulagnet, Thieure, Pont de Bridou, 9.5 km]]></name>
    <cmt><![CDATA[10:44:39]]></cmt>
    <desc><![CDATA[<html dir="ltr"><head></head><body contenteditable="true">comment ...</body></html></br>
----</br>
Groupe : [import]]]></desc>
    <trkseg>
      <trkpt lat="44.66911" lon="4.36034">
        <ele>282</ele>
        <time>2025-05-10T08:44:39Z</time>
      </trkpt>
      <trkpt lat="44.66917" lon="4.36018">
        <ele>282.4</ele>
        <time>2025-05-13T16:02:08Z</time>
      </trkpt>
      <trkpt lat="44.66931" lon="4.36005">
        <ele>283.7</ele>
        <time>2025-05-13T16:02:08Z</time>
      </trkpt>
      <trkpt lat="44.66952" lon="4.3601">
        <ele>285.1</ele>
        <time>2025-05-13T16:02:08Z</time>
      </trkpt>
      <trkpt lat="44.66983" lon="4.36021">
        <ele>286.8</ele>
        <time>2025-05-13T16:02:08Z</time>
      </trkpt>
      <trkpt lat="44.67001" lon="4.36029">
        <ele>287.9</ele>
        <time>2025-05-13T16:02:08Z</time>
      </trkpt>
      <trkpt lat="44.67009" lon="4.36035">
        <ele>288</ele>
        <time>2025-05-13T16:02:08Z</time>
      </trkpt>
      <trkpt lat="44.67017" lon="4.36049">
        <ele>287.4</ele>
        <time>2025-05-13T16:02:08Z</time>
      </trkpt>
      <trkpt lat="44.67027" lon="4.36058">
        <ele>287.5</ele>
        <time>2025-05-13T16:02:08Z</time>
      </trkpt>
      <trkpt lat="44.67033" lon="4.36058">
        <ele>286.8</ele>
        <time>2025-05-13T16:02:08Z</time>
      </trkpt>
      <trkpt lat="44.67048" lon="4.36037">
        <ele>288.6</ele>
        <time>2025-05-13T16:02:08Z</time>
      </trkpt>
      <trkpt lat="44.67057" lon="4.36033">
        <ele>290</ele>
        <time>2025-05-13T16:02:08Z</time>
      </trkpt>
      <trkpt lat="44.67074" lon="4.36033">
        <ele>294</ele>
        <time>2025-05-13T16:02:08Z</time>
      </trkpt>
      <trkpt lat="44.67078" lon="4.36028">
        <ele>295.9</ele>
        <time>2025-05-13T16:02:08Z</time>
      </trkpt>
      <trkpt lat="44.67081" lon="4.36002">
        <ele>299</ele>
        <time>2025-05-13T16:02:08Z</time>
      </trkpt>
      <trkpt lat="44.67079" lon="4.35985">
        <ele>300.1</ele>
        <time>2025-05-13T16:02:08Z</time>
      </trkpt>
      <trkpt lat="44.6708" lon="4.35978">
        <ele>301.6</ele>
        <time>2025-05-13T16:02:08Z</time>
      </trkpt>
      <trkpt lat="44.67085" lon="4.35947">
        <ele>306.1</ele>
        <time>2025-05-13T16:02:08Z</time>
      </trkpt>
      <trkpt lat="44.67082" lon="4.35936">
        <ele>306.9</ele>
        <time>2025-05-13T16:02:08Z</time>
      </trkpt>
      <trkpt lat="44.67073" lon="4.35926">
        <ele>306.2</ele>
        <time>2025-05-13T16:02:08Z</time>
      </trkpt>
      <trkpt lat="44.67071" lon="4.35895">
        <ele>312.1</ele>
        <time>2025-05-13T16:02:08Z</time>
      </trkpt>
      <trkpt lat="44.6706" lon="4.35886">
        <ele>312</ele>
        <time>2025-05-13T16:02:08Z</time>
      </trkpt>
      <trkpt lat="44.67058" lon="4.3588">
        <ele>312.2</ele>
        <time>2025-05-13T16:02:08Z</time>
      </trkpt>
      <trkpt lat="44.67041" lon="4.35866">
        <ele>311.4</ele>
        <time>2025-05-13T16:02:08Z</time>
      </trkpt>
      <trkpt lat="44.67036" lon="4.35863">
        <ele>311</ele>
        <time>2025-05-13T16:02:08Z</time>
      </trkpt>
      <trkpt lat="44.67026" lon="4.35833">
        <ele>310.7</ele>
        <time>2025-05-13T16:02:08Z</time>
      </trkpt>
      <trkpt lat="44.67021" lon="4.35785">
        <ele>311.3</ele>
        <time>2025-05-13T16:02:08Z</time>
      </trkpt>
      <trkpt lat="44.67014" lon="4.35769">
        <ele>313.8</ele>
        <time>2025-05-13T16:02:08Z</time>
      </trkpt>
      <trkpt lat="44.67009" lon="4.35771">
        <ele>314.1</ele>
        <time>2025-05-13T16:02:08Z</time>
      </trkpt>
      <trkpt lat="44.66998" lon="4.35785">
        <ele>313</ele>
        <time>2025-05-13T16:02:08Z</time>
      </trkpt>
      <trkpt lat="44.66983" lon="4.35799">
        <ele>314</ele>
        <time>2025-05-13T16:02:08Z</time>
      </trkpt>
      <trkpt lat="44.66977" lon="4.358">
        <ele>315.4</ele>
        <time>2025-05-13T16:02:08Z</time>
      </trkpt>
      <trkpt lat="44.66992" lon="4.35778">
        <ele>316.8</ele>
        <time>2025-05-13T16:02:08Z</time>
      </trkpt>
      <trkpt lat="44.67001" lon="4.3575">
        <ele>318.9</ele>
        <time>2025-05-13T16:02:08Z</time>
      </trkpt>
      <trkpt lat="44.67005" lon="4.35722">
        <ele>321</ele>
        <time>2025-05-13T16:02:08Z</time>
      </trkpt>
      <trkpt lat="44.67006" lon="4.35681">
        <ele>326.1</ele>
        <time>2025-05-13T16:02:08Z</time>
      </trkpt>
      <trkpt lat="44.67023" lon="4.35696">
        <ele>328.4</ele>
        <time>2025-05-13T16:02:08Z</time>
      </trkpt>
      <trkpt lat="44.67026" lon="4.35689">
        <ele>330.9</ele>
        <time>2025-05-13T16:02:08Z</time>
      </trkpt>
      <trkpt lat="44.67018" lon="4.3568">
        <ele>330.4</ele>
        <time>2025-05-13T16:02:08Z</time>
      </trkpt>
      <trkpt lat="44.67015" lon="4.35669">
        <ele>331.5</ele>
        <time>2025-05-13T16:02:08Z</time>
      </trkpt>
      <trkpt lat="44.67034" lon="4.3567">
        <ele>337.6</ele>
        <time>2025-05-13T16:02:08Z</time>
      </trkpt>
      <trkpt lat="44.67042" lon="4.35663">
        <ele>339.1</ele>
        <time>2025-05-13T16:02:08Z</time>
      </trkpt>
      <trkpt lat="44.6705" lon="4.35656">
        <ele>340.3</ele>
        <time>2025-05-13T16:02:08Z</time>
      </trkpt>
      <trkpt lat="44.67071" lon="4.35643">
        <ele>346</ele>
        <time>2025-05-13T16:02:08Z</time>
      </trkpt>
      <trkpt lat="44.67101" lon="4.35649">
        <ele>357</ele>
        <time>2025-05-13T16:02:08Z</time>
      </trkpt>
      <trkpt lat="44.67093" lon="4.3563">
        <ele>356.3</ele>
        <time>2025-05-13T16:02:08Z</time>
      </trkpt>
      <trkpt lat="44.67088" lon="4.35588">
        <ele>358.5</ele>
        <time>2025-05-13T16:02:08Z</time>
      </trkpt>
      <trkpt lat="44.67095" lon="4.35584">
        <ele>362.6</ele>
        <time>2025-05-13T16:02:08Z</time>
      </trkpt>
      <trkpt lat="44.671" lon="4.35574">
        <ele>366.1</ele>
        <time>2025-05-13T16:02:08Z</time>
      </trkpt>
      <trkpt lat="44.67095" lon="4.35519">
        <ele>369.6</ele>
        <time>2025-05-13T16:02:08Z</time>
      </trkpt>
      <trkpt lat="44.67097" lon="4.35464">
        <ele>371.7</ele>
        <time>2025-05-13T16:02:08Z</time>
      </trkpt>
      <trkpt lat="44.67103" lon="4.35402">
        <ele>373.3</ele>
        <time>2025-05-13T16:02:08Z</time>
      </trkpt>
      <trkpt lat="44.6712" lon="4.35338">
        <ele>384.7</ele>
        <time>2025-05-13T16:02:08Z</time>
      </trkpt>
      <trkpt lat="44.67126" lon="4.35378">
        <ele>389.8</ele>
        <time>2025-05-13T16:02:08Z</time>
      </trkpt>
      <trkpt lat="44.67142" lon="4.35342">
        <ele>398.5</ele>
        <time>2025-05-13T16:02:08Z</time>
      </trkpt>
      <trkpt lat="44.67152" lon="4.354">
        <ele>406.1</ele>
        <time>2025-05-13T16:02:08Z</time>
      </trkpt>
      <trkpt lat="44.67161" lon="4.35364">
        <ele>411.9</ele>
        <time>2025-05-13T16:02:08Z</time>
      </trkpt>
      <trkpt lat="44.6717" lon="4.35345">
        <ele>416</ele>
        <time>2025-05-13T16:02:08Z</time>
      </trkpt>
      <trkpt lat="44.67187" lon="4.3543">
        <ele>429.7</ele>
        <time>2025-05-13T16:02:08Z</time>
      </trkpt>
      <trkpt lat="44.67193" lon="4.35415">
        <ele>432.2</ele>
        <time>2025-05-13T16:02:08Z</time>
      </trkpt>
      <trkpt lat="44.67201" lon="4.35386">
        <ele>436.9</ele>
        <time>2025-05-13T16:02:08Z</time>
      </trkpt>
      <trkpt lat="44.67217" lon="4.35358">
        <ele>444</ele>
        <time>2025-05-13T16:02:08Z</time>
      </trkpt>
      <trkpt lat="44.67235" lon="4.35335">
        <ele>449.8</ele>
        <time>2025-05-13T16:02:08Z</time>
      </trkpt>
      <trkpt lat="44.67261" lon="4.35321">
        <ele>454.3</ele>
        <time>2025-05-13T16:02:08Z</time>
      </trkpt>
      <trkpt lat="44.6732" lon="4.35307">
        <ele>466</ele>
        <time>2025-05-13T16:02:08Z</time>
      </trkpt>
      <trkpt lat="44.6735" lon="4.35305">
        <ele>469.1</ele>
        <time>2025-05-13T16:02:08Z</time>
      </trkpt>
      <trkpt lat="44.67384" lon="4.35325">
        <ele>476.9</ele>
        <time>2025-05-13T16:02:08Z</time>
      </trkpt>
      <trkpt lat="44.67405" lon="4.35351">
        <ele>483</ele>
        <time>2025-05-13T16:02:08Z</time>
      </trkpt>
      <trkpt lat="44.6743" lon="4.35388">
        <ele>489.4</ele>
        <time>2025-05-13T16:02:08Z</time>
      </trkpt>
      <trkpt lat="44.6746" lon="4.35423">
        <ele>492.4</ele>
        <time>2025-05-13T16:02:08Z</time>
      </trkpt>
      <trkpt lat="44.67486" lon="4.35424">
        <ele>493</ele>
        <time>2025-05-13T16:02:08Z</time>
      </trkpt>
      <trkpt lat="44.67514" lon="4.35415">
        <ele>495</ele>
        <time>2025-05-13T16:02:08Z</time>
      </trkpt>
      <trkpt lat="44.67564" lon="4.3541">
        <ele>499.5</ele>
        <time>2025-05-13T16:02:08Z</time>
      </trkpt>
      <trkpt lat="44.67581" lon="4.35411">
        <ele>501.8</ele>
        <time>2025-05-13T16:02:08Z</time>
      </trkpt>
      <trkpt lat="44.67597" lon="4.35396">
        <ele>503.7</ele>
        <time>2025-05-13T16:02:08Z</time>
      </trkpt>
      <trkpt lat="44.67601" lon="4.35417">
        <ele>506.1</ele>
        <time>2025-05-13T16:02:08Z</time>
      </trkpt>
      <trkpt lat="44.67626" lon="4.35439">
        <ele>507.1</ele>
        <time>2025-05-13T16:02:08Z</time>
      </trkpt>
      <trkpt lat="44.67658" lon="4.35445">
        <ele>510.7</ele>
        <time>2025-05-13T16:02:08Z</time>
      </trkpt>
      <trkpt lat="44.67676" lon="4.35436">
        <ele>512</ele>
        <time>2025-05-13T16:02:08Z</time>
      </trkpt>
      <trkpt lat="44.67693" lon="4.35403">
        <ele>515.6</ele>
        <time>2025-05-13T16:02:08Z</time>
      </trkpt>
      <trkpt lat="44.67721" lon="4.35405">
        <ele>511.8</ele>
        <time>2025-05-13T16:02:08Z</time>
      </trkpt>
      <trkpt lat="44.67742" lon="4.35398">
        <ele>509.6</ele>
        <time>2025-05-13T16:02:08Z</time>
      </trkpt>
      <trkpt lat="44.67804" lon="4.35304">
        <ele>509.4</ele>
        <time>2025-05-13T16:02:08Z</time>
      </trkpt>
      <trkpt lat="44.67825" lon="4.35303">
        <ele>498.6</ele>
        <time>2025-05-13T16:02:08Z</time>
      </trkpt>
      <trkpt lat="44.67852" lon="4.35302">
        <ele>482.4</ele>
        <time>2025-05-13T16:02:08Z</time>
      </trkpt>
      <trkpt lat="44.67865" lon="4.35291">
        <ele>475.5</ele>
        <time>2025-05-13T16:02:08Z</time>
      </trkpt>
      <trkpt lat="44.67876" lon="4.35221">
        <ele>483.7</ele>
        <time>2025-05-13T16:02:08Z</time>
      </trkpt>
      <trkpt lat="44.67897" lon="4.35167">
        <ele>484.2</ele>
        <time>2025-05-13T16:02:08Z</time>
      </trkpt>
      <trkpt lat="44.67938" lon="4.35136">
        <ele>481</ele>
        <time>2025-05-13T16:02:08Z</time>
      </trkpt>
      <trkpt lat="44.67992" lon="4.35133">
        <ele>473.7</ele>
        <time>2025-05-13T16:02:08Z</time>
      </trkpt>
      <trkpt lat="44.68037" lon="4.35032">
        <ele>477.4</ele>
        <time>2025-05-13T16:02:08Z</time>
      </trkpt>
      <trkpt lat="44.68072" lon="4.3499">
        <ele>476.8</ele>
        <time>2025-05-13T16:02:08Z</time>
      </trkpt>
      <trkpt lat="44.68101" lon="4.34948">
        <ele>471</ele>
        <time>2025-05-13T16:02:08Z</time>
      </trkpt>
      <trkpt lat="44.68107" lon="4.34895">
        <ele>459</ele>
        <time>2025-05-13T16:02:08Z</time>
      </trkpt>
      <trkpt lat="44.68136" lon="4.34849">
        <ele>454.1</ele>
        <time>2025-05-13T16:02:08Z</time>
      </trkpt>
      <trkpt lat="44.68153" lon="4.34796">
        <ele>448.2</ele>
        <time>2025-05-13T16:02:08Z</time>
      </trkpt>
      <trkpt lat="44.68204" lon="4.3481">
        <ele>441</ele>
        <time>2025-05-13T16:02:08Z</time>
      </trkpt>
      <trkpt lat="44.68255" lon="4.34833">
        <ele>435</ele>
        <time>2025-05-13T16:02:08Z</time>
      </trkpt>
      <trkpt lat="44.68301" lon="4.34828">
        <ele>433.6</ele>
        <time>2025-05-13T16:02:08Z</time>
      </trkpt>
      <trkpt lat="44.68326" lon="4.34798">
        <ele>417.7</ele>
        <time>2025-05-13T16:02:08Z</time>
      </trkpt>
      <trkpt lat="44.6834" lon="4.34753">
        <ele>403.2</ele>
        <time>2025-05-13T16:02:08Z</time>
      </trkpt>
      <trkpt lat="44.68364" lon="4.34747">
        <ele>386.3</ele>
        <time>2025-05-13T16:02:08Z</time>
      </trkpt>
      <trkpt lat="44.68382" lon="4.34708">
        <ele>385.1</ele>
        <time>2025-05-13T16:02:08Z</time>
      </trkpt>
      <trkpt lat="44.68434" lon="4.34726">
        <ele>381.6</ele>
        <time>2025-05-13T16:02:08Z</time>
      </trkpt>
      <trkpt lat="44.68465" lon="4.34716">
        <ele>382.6</ele>
        <time>2025-05-10T08:44:40Z</time>
      </trkpt>
      <trkpt lat="44.68481" lon="4.34694">
        <ele>386.6</ele>
        <time>2025-05-10T08:44:40Z</time>
      </trkpt>
      <trkpt lat="44.68511" lon="4.34696">
        <ele>383</ele>
        <time>2025-05-13T16:02:08Z</time>
      </trkpt>
      <trkpt lat="44.68511" lon="4.3471">
        <ele>378.7</ele>
        <time>2025-05-13T16:02:08Z</time>
      </trkpt>
      <trkpt lat="44.685" lon="4.34736">
        <ele>370.1</ele>
        <time>2025-05-13T16:02:08Z</time>
      </trkpt>
      <trkpt lat="44.68498" lon="4.34765">
        <ele>361.9</ele>
        <time>2025-05-13T16:02:08Z</time>
      </trkpt>
      <trkpt lat="44.68497" lon="4.34794">
        <ele>354</ele>
        <time>2025-05-13T16:02:08Z</time>
      </trkpt>
      <trkpt lat="44.68502" lon="4.34823">
        <ele>346.1</ele>
        <time>2025-05-13T16:02:08Z</time>
      </trkpt>
      <trkpt lat="44.68504" lon="4.34852">
        <ele>340.5</ele>
        <time>2025-05-13T16:02:08Z</time>
      </trkpt>
      <trkpt lat="44.68508" lon="4.34881">
        <ele>337.2</ele>
        <time>2025-05-13T16:02:08Z</time>
      </trkpt>
      <trkpt lat="44.68517" lon="4.34908">
        <ele>333.5</ele>
        <time>2025-05-13T16:02:08Z</time>
      </trkpt>
      <trkpt lat="44.68536" lon="4.34922">
        <ele>332</ele>
        <time>2025-05-13T16:02:08Z</time>
      </trkpt>
      <trkpt lat="44.68558" lon="4.34931">
        <ele>335.2</ele>
        <time>2025-05-13T16:02:08Z</time>
      </trkpt>
      <trkpt lat="44.68585" lon="4.34927">
        <ele>337.5</ele>
        <time>2025-05-13T16:02:08Z</time>
      </trkpt>
      <trkpt lat="44.68605" lon="4.34947">
        <ele>343.3</ele>
        <time>2025-05-13T16:02:08Z</time>
      </trkpt>
      <trkpt lat="44.68624" lon="4.34968">
        <ele>347.1</ele>
        <time>2025-05-13T16:02:08Z</time>
      </trkpt>
      <trkpt lat="44.68641" lon="4.3499">
        <ele>351.7</ele>
        <time>2025-05-13T16:02:08Z</time>
      </trkpt>
      <trkpt lat="44.68658" lon="4.34997">
        <ele>355.4</ele>
        <time>2025-05-13T16:02:08Z</time>
      </trkpt>
      <trkpt lat="44.68666" lon="4.35012">
        <ele>359.5</ele>
        <time>2025-05-13T16:02:08Z</time>
      </trkpt>
      <trkpt lat="44.68665" lon="4.35041">
        <ele>364.7</ele>
        <time>2025-05-13T16:02:08Z</time>
      </trkpt>
      <trkpt lat="44.68668" lon="4.3507">
        <ele>367.7</ele>
        <time>2025-05-13T16:02:08Z</time>
      </trkpt>
      <trkpt lat="44.68679" lon="4.35068">
        <ele>375.2</ele>
        <time>2025-05-13T16:02:08Z</time>
      </trkpt>
      <trkpt lat="44.68684" lon="4.35096">
        <ele>380.8</ele>
        <time>2025-05-13T16:02:08Z</time>
      </trkpt>
      <trkpt lat="44.68688" lon="4.35125">
        <ele>386.5</ele>
        <time>2025-05-13T16:02:08Z</time>
      </trkpt>
      <trkpt lat="44.68692" lon="4.35154">
        <ele>391.9</ele>
        <time>2025-05-13T16:02:08Z</time>
      </trkpt>
      <trkpt lat="44.68705" lon="4.35139">
        <ele>396.6</ele>
        <time>2025-05-13T16:02:08Z</time>
      </trkpt>
      <trkpt lat="44.68711" lon="4.3516">
        <ele>403.2</ele>
        <time>2025-05-13T16:02:08Z</time>
      </trkpt>
      <trkpt lat="44.68719" lon="4.35166">
        <ele>408.3</ele>
        <time>2025-05-13T16:02:08Z</time>
      </trkpt>
      <trkpt lat="44.68732" lon="4.35162">
        <ele>415.3</ele>
        <time>2025-05-13T16:02:08Z</time>
      </trkpt>
      <trkpt lat="44.68732" lon="4.3519">
        <ele>419.3</ele>
        <time>2025-05-13T16:02:08Z</time>
      </trkpt>
      <trkpt lat="44.68729" lon="4.35219">
        <ele>422.7</ele>
        <time>2025-05-13T16:02:08Z</time>
      </trkpt>
      <trkpt lat="44.68729" lon="4.35248">
        <ele>427.1</ele>
        <time>2025-05-13T16:02:08Z</time>
      </trkpt>
      <trkpt lat="44.6873" lon="4.35278">
        <ele>431.7</ele>
        <time>2025-05-13T16:02:08Z</time>
      </trkpt>
      <trkpt lat="44.6873" lon="4.35307">
        <ele>435.9</ele>
        <time>2025-05-13T16:02:08Z</time>
      </trkpt>
      <trkpt lat="44.68731" lon="4.35336">
        <ele>441.3</ele>
        <time>2025-05-13T16:02:08Z</time>
      </trkpt>
      <trkpt lat="44.68736" lon="4.35365">
        <ele>447.6</ele>
        <time>2025-05-13T16:02:08Z</time>
      </trkpt>
      <trkpt lat="44.68741" lon="4.35394">
        <ele>455</ele>
        <time>2025-05-13T16:02:08Z</time>
      </trkpt>
      <trkpt lat="44.6876" lon="4.3539">
        <ele>464</ele>
        <time>2025-05-13T16:02:08Z</time>
      </trkpt>
      <trkpt lat="44.68768" lon="4.35417">
        <ele>472.2</ele>
        <time>2025-05-13T16:02:08Z</time>
      </trkpt>
      <trkpt lat="44.68777" lon="4.35405">
        <ele>475.5</ele>
        <time>2025-05-13T16:02:08Z</time>
      </trkpt>
      <trkpt lat="44.68784" lon="4.3541">
        <ele>480.6</ele>
        <time>2025-05-13T16:02:08Z</time>
      </trkpt>
      <trkpt lat="44.68785" lon="4.35439">
        <ele>486.2</ele>
        <time>2025-05-13T16:02:08Z</time>
      </trkpt>
      <trkpt lat="44.6879" lon="4.3545">
        <ele>490.7</ele>
        <time>2025-05-13T16:02:08Z</time>
      </trkpt>
      <trkpt lat="44.68801" lon="4.35423">
        <ele>493.5</ele>
        <time>2025-05-13T16:02:08Z</time>
      </trkpt>
      <trkpt lat="44.68804" lon="4.35436">
        <ele>497.1</ele>
        <time>2025-05-13T16:02:08Z</time>
      </trkpt>
      <trkpt lat="44.68804" lon="4.35465">
        <ele>500.8</ele>
        <time>2025-05-13T16:02:08Z</time>
      </trkpt>
      <trkpt lat="44.68797" lon="4.35494">
        <ele>504.7</ele>
        <time>2025-05-13T16:02:08Z</time>
      </trkpt>
      <trkpt lat="44.68782" lon="4.35517">
        <ele>508.5</ele>
        <time>2025-05-13T16:02:08Z</time>
      </trkpt>
      <trkpt lat="44.68759" lon="4.35534">
        <ele>512.7</ele>
        <time>2025-05-13T16:02:08Z</time>
      </trkpt>
      <trkpt lat="44.68731" lon="4.35541">
        <ele>514.7</ele>
        <time>2025-05-13T16:02:08Z</time>
      </trkpt>
      <trkpt lat="44.6872" lon="4.35549">
        <ele>517.5</ele>
        <time>2025-05-10T08:44:40Z</time>
      </trkpt>
      <trkpt lat="44.68681" lon="4.35562">
        <ele>519.9</ele>
        <time>2025-05-13T16:02:08Z</time>
      </trkpt>
      <trkpt lat="44.68658" lon="4.35588">
        <ele>523.5</ele>
        <time>2025-05-13T16:02:08Z</time>
      </trkpt>
      <trkpt lat="44.6865" lon="4.35628">
        <ele>526.6</ele>
        <time>2025-05-13T16:02:08Z</time>
      </trkpt>
      <trkpt lat="44.68643" lon="4.35668">
        <ele>529.7</ele>
        <time>2025-05-13T16:02:08Z</time>
      </trkpt>
      <trkpt lat="44.68644" lon="4.35709">
        <ele>534.3</ele>
        <time>2025-05-13T16:02:08Z</time>
      </trkpt>
      <trkpt lat="44.68637" lon="4.35749">
        <ele>536.3</ele>
        <time>2025-05-13T16:02:08Z</time>
      </trkpt>
      <trkpt lat="44.68624" lon="4.35787">
        <ele>540.2</ele>
        <time>2025-05-13T16:02:08Z</time>
      </trkpt>
      <trkpt lat="44.68603" lon="4.35822">
        <ele>543.2</ele>
        <time>2025-05-13T16:02:08Z</time>
      </trkpt>
      <trkpt lat="44.6858" lon="4.35855">
        <ele>549.3</ele>
        <time>2025-05-13T16:02:08Z</time>
      </trkpt>
      <trkpt lat="44.68553" lon="4.35885">
        <ele>554.1</ele>
        <time>2025-05-13T16:02:08Z</time>
      </trkpt>
      <trkpt lat="44.68533" lon="4.3592">
        <ele>561.6</ele>
        <time>2025-05-13T16:02:08Z</time>
      </trkpt>
      <trkpt lat="44.68512" lon="4.35954">
        <ele>561.7</ele>
        <time>2025-05-13T16:02:08Z</time>
      </trkpt>
      <trkpt lat="44.68527" lon="4.35981">
        <ele>556.8</ele>
        <time>2025-05-13T16:02:08Z</time>
      </trkpt>
      <trkpt lat="44.68553" lon="4.3601">
        <ele>546.6</ele>
        <time>2025-05-13T16:02:08Z</time>
      </trkpt>
      <trkpt lat="44.68586" lon="4.36033">
        <ele>539.7</ele>
        <time>2025-05-13T16:02:08Z</time>
      </trkpt>
      <trkpt lat="44.686" lon="4.36068">
        <ele>531.6</ele>
        <time>2025-05-13T16:02:08Z</time>
      </trkpt>
      <trkpt lat="44.68597" lon="4.36109">
        <ele>522.5</ele>
        <time>2025-05-13T16:02:08Z</time>
      </trkpt>
      <trkpt lat="44.68594" lon="4.3615">
        <ele>515.3</ele>
        <time>2025-05-13T16:02:08Z</time>
      </trkpt>
      <trkpt lat="44.68592" lon="4.3619">
        <ele>509.3</ele>
        <time>2025-05-13T16:02:08Z</time>
      </trkpt>
      <trkpt lat="44.68589" lon="4.36231">
        <ele>504.1</ele>
        <time>2025-05-13T16:02:08Z</time>
      </trkpt>
      <trkpt lat="44.68609" lon="4.36259">
        <ele>497.6</ele>
        <time>2025-05-13T16:02:08Z</time>
      </trkpt>
      <trkpt lat="44.68646" lon="4.36246">
        <ele>491.4</ele>
        <time>2025-05-13T16:02:08Z</time>
      </trkpt>
      <trkpt lat="44.68679" lon="4.36222">
        <ele>483.3</ele>
        <time>2025-05-13T16:02:08Z</time>
      </trkpt>
      <trkpt lat="44.68668" lon="4.36257">
        <ele>478.2</ele>
        <time>2025-05-13T16:02:08Z</time>
      </trkpt>
      <trkpt lat="44.6865" lon="4.36294">
        <ele>472.3</ele>
        <time>2025-05-13T16:02:08Z</time>
      </trkpt>
      <trkpt lat="44.68631" lon="4.36329">
        <ele>464.6</ele>
        <time>2025-05-13T16:02:08Z</time>
      </trkpt>
      <trkpt lat="44.68612" lon="4.36365">
        <ele>456.2</ele>
        <time>2025-05-13T16:02:08Z</time>
      </trkpt>
      <trkpt lat="44.68634" lon="4.36381">
        <ele>446.9</ele>
        <time>2025-05-13T16:02:08Z</time>
      </trkpt>
      <trkpt lat="44.6865" lon="4.3638">
        <ele>440.6</ele>
        <time>2025-05-13T16:02:08Z</time>
      </trkpt>
      <trkpt lat="44.68654" lon="4.3642">
        <ele>431.7</ele>
        <time>2025-05-13T16:02:08Z</time>
      </trkpt>
      <trkpt lat="44.68655" lon="4.36452">
        <ele>423.3</ele>
        <time>2025-05-13T16:02:08Z</time>
      </trkpt>
      <trkpt lat="44.68683" lon="4.36451">
        <ele>412.3</ele>
        <time>2025-05-13T16:02:08Z</time>
      </trkpt>
      <trkpt lat="44.68669" lon="4.36489">
        <ele>406.8</ele>
        <time>2025-05-13T16:02:08Z</time>
      </trkpt>
      <trkpt lat="44.68653" lon="4.36527">
        <ele>397.7</ele>
        <time>2025-05-13T16:02:08Z</time>
      </trkpt>
      <trkpt lat="44.68628" lon="4.36558">
        <ele>390.9</ele>
        <time>2025-05-13T16:02:08Z</time>
      </trkpt>
      <trkpt lat="44.68616" lon="4.36589">
        <ele>378.8</ele>
        <time>2025-05-13T16:02:08Z</time>
      </trkpt>
      <trkpt lat="44.68646" lon="4.36608">
        <ele>372.7</ele>
        <time>2025-05-13T16:02:08Z</time>
      </trkpt>
      <trkpt lat="44.68679" lon="4.36586">
        <ele>365.7</ele>
        <time>2025-05-13T16:02:08Z</time>
      </trkpt>
      <trkpt lat="44.68676" lon="4.36612">
        <ele>358.9</ele>
        <time>2025-05-13T16:02:08Z</time>
      </trkpt>
      <trkpt lat="44.6867" lon="4.36652">
        <ele>351.7</ele>
        <time>2025-05-13T16:02:08Z</time>
      </trkpt>
      <trkpt lat="44.68679" lon="4.36679">
        <ele>338.2</ele>
        <time>2025-05-13T16:02:08Z</time>
      </trkpt>
      <trkpt lat="44.68672" lon="4.36719">
        <ele>331.8</ele>
        <time>2025-05-13T16:02:08Z</time>
      </trkpt>
      <trkpt lat="44.68691" lon="4.36707">
        <ele>323.6</ele>
        <time>2025-05-13T16:02:08Z</time>
      </trkpt>
      <trkpt lat="44.68685" lon="4.36747">
        <ele>316.3</ele>
        <time>2025-05-13T16:02:08Z</time>
      </trkpt>
      <trkpt lat="44.68654" lon="4.3676">
        <ele>313.3</ele>
        <time>2025-05-13T16:02:08Z</time>
      </trkpt>
      <trkpt lat="44.68614" lon="4.36752">
        <ele>309.8</ele>
        <time>2025-05-13T16:02:08Z</time>
      </trkpt>
      <trkpt lat="44.68575" lon="4.36743">
        <ele>309.2</ele>
        <time>2025-05-13T16:02:08Z</time>
      </trkpt>
      <trkpt lat="44.68535" lon="4.36739">
        <ele>303.7</ele>
        <time>2025-05-13T16:02:08Z</time>
      </trkpt>
      <trkpt lat="44.68527" lon="4.3672">
        <ele>306.1</ele>
        <time>2025-05-10T08:44:40Z</time>
      </trkpt>
      <trkpt lat="44.68494" lon="4.36684">
        <ele>305.3</ele>
        <time>2025-05-10T08:44:40Z</time>
      </trkpt>
      <trkpt lat="44.68482" lon="4.36655">
        <ele>308.4</ele>
        <time>2025-05-10T08:44:40Z</time>
      </trkpt>
      <trkpt lat="44.68449" lon="4.36611">
        <ele>311.8</ele>
        <time>2025-05-10T08:44:40Z</time>
      </trkpt>
      <trkpt lat="44.68404" lon="4.36604">
        <ele>308.4</ele>
        <time>2025-05-13T16:02:08Z</time>
      </trkpt>
      <trkpt lat="44.68361" lon="4.36593">
        <ele>308.4</ele>
        <time>2025-05-13T16:02:08Z</time>
      </trkpt>
      <trkpt lat="44.68322" lon="4.36612">
        <ele>305.3</ele>
        <time>2025-05-13T16:02:08Z</time>
      </trkpt>
      <trkpt lat="44.68264" lon="4.36681">
        <ele>304.5</ele>
        <time>2025-05-13T16:02:08Z</time>
      </trkpt>
      <trkpt lat="44.68234" lon="4.36715">
        <ele>300.3</ele>
        <time>2025-05-13T16:02:08Z</time>
      </trkpt>
      <trkpt lat="44.68197" lon="4.36738">
        <ele>301.6</ele>
        <time>2025-05-13T16:02:08Z</time>
      </trkpt>
      <trkpt lat="44.68152" lon="4.36745">
        <ele>302.2</ele>
        <time>2025-05-13T16:02:08Z</time>
      </trkpt>
      <trkpt lat="44.68111" lon="4.36728">
        <ele>301.3</ele>
        <time>2025-05-13T16:02:08Z</time>
      </trkpt>
      <trkpt lat="44.67966" lon="4.36621">
        <ele>300.6</ele>
        <time>2025-05-13T16:02:08Z</time>
      </trkpt>
      <trkpt lat="44.67937" lon="4.36589">
        <ele>298.6</ele>
        <time>2025-05-13T16:02:08Z</time>
      </trkpt>
      <trkpt lat="44.67946" lon="4.36547">
        <ele>309.8</ele>
        <time>2025-05-13T16:02:08Z</time>
      </trkpt>
      <trkpt lat="44.67945" lon="4.36504">
        <ele>322.7</ele>
        <time>2025-05-13T16:02:08Z</time>
      </trkpt>
      <trkpt lat="44.67936" lon="4.36467">
        <ele>335.3</ele>
        <time>2025-05-13T16:02:08Z</time>
      </trkpt>
      <trkpt lat="44.67922" lon="4.36432">
        <ele>341.3</ele>
        <time>2025-05-13T16:02:08Z</time>
      </trkpt>
      <trkpt lat="44.67891" lon="4.3644">
        <ele>322.1</ele>
        <time>2025-05-13T16:02:08Z</time>
      </trkpt>
      <trkpt lat="44.67892" lon="4.36467">
        <ele>313.5</ele>
        <time>2025-05-13T16:02:08Z</time>
      </trkpt>
      <trkpt lat="44.6785" lon="4.36454">
        <ele>301.9</ele>
        <time>2025-05-13T16:02:08Z</time>
      </trkpt>
      <trkpt lat="44.67813" lon="4.36459">
        <ele>288.2</ele>
        <time>2025-05-13T16:02:08Z</time>
      </trkpt>
      <trkpt lat="44.67822" lon="4.36416">
        <ele>289.6</ele>
        <time>2025-05-13T16:02:08Z</time>
      </trkpt>
      <trkpt lat="44.67832" lon="4.36372">
        <ele>290.8</ele>
        <time>2025-05-13T16:02:08Z</time>
      </trkpt>
      <trkpt lat="44.67852" lon="4.36284">
        <ele>293</ele>
        <time>2025-05-13T16:02:08Z</time>
      </trkpt>
      <trkpt lat="44.67852" lon="4.36239">
        <ele>294.5</ele>
        <time>2025-05-13T16:02:08Z</time>
      </trkpt>
      <trkpt lat="44.67844" lon="4.36195">
        <ele>297.6</ele>
        <time>2025-05-13T16:02:08Z</time>
      </trkpt>
      <trkpt lat="44.67795" lon="4.36121">
        <ele>298.5</ele>
        <time>2025-05-13T16:02:08Z</time>
      </trkpt>
      <trkpt lat="44.67787" lon="4.36077">
        <ele>299.1</ele>
        <time>2025-05-13T16:02:08Z</time>
      </trkpt>
      <trkpt lat="44.67794" lon="4.35986">
        <ele>300.6</ele>
        <time>2025-05-13T16:02:08Z</time>
      </trkpt>
      <trkpt lat="44.67808" lon="4.35944">
        <ele>301.7</ele>
        <time>2025-05-13T16:02:08Z</time>
      </trkpt>
      <trkpt lat="44.67829" lon="4.35904">
        <ele>302.8</ele>
        <time>2025-05-13T16:02:08Z</time>
      </trkpt>
      <trkpt lat="44.67865" lon="4.35878">
        <ele>304.9</ele>
        <time>2025-05-13T16:02:08Z</time>
      </trkpt>
      <trkpt lat="44.67875" lon="4.35842">
        <ele>299.9</ele>
        <time>2025-05-13T16:02:08Z</time>
      </trkpt>
      <trkpt lat="44.67833" lon="4.35842">
        <ele>303.5</ele>
        <time>2025-05-13T16:02:08Z</time>
      </trkpt>
      <trkpt lat="44.67791" lon="4.35856">
        <ele>306.4</ele>
        <time>2025-05-13T16:02:08Z</time>
      </trkpt>
      <trkpt lat="44.67758" lon="4.35887">
        <ele>308.7</ele>
        <time>2025-05-13T16:02:08Z</time>
      </trkpt>
      <trkpt lat="44.67725" lon="4.35918">
        <ele>309.8</ele>
        <time>2025-05-13T16:02:08Z</time>
      </trkpt>
      <trkpt lat="44.67677" lon="4.36041">
        <ele>303.6</ele>
        <time>2025-05-13T16:02:08Z</time>
      </trkpt>
      <trkpt lat="44.67668" lon="4.36085">
        <ele>301.1</ele>
        <time>2025-05-13T16:02:08Z</time>
      </trkpt>
      <trkpt lat="44.6767" lon="4.3613">
        <ele>301.6</ele>
        <time>2025-05-13T16:02:08Z</time>
      </trkpt>
      <trkpt lat="44.67683" lon="4.36171">
        <ele>309.2</ele>
        <time>2025-05-10T08:44:40Z</time>
      </trkpt>
      <trkpt lat="44.67706" lon="4.36201">
        <ele>311.9</ele>
        <time>2025-05-13T16:02:08Z</time>
      </trkpt>
      <trkpt lat="44.67763" lon="4.36252">
        <ele>307.2</ele>
        <time>2025-05-13T16:02:08Z</time>
      </trkpt>
      <trkpt lat="44.67778" lon="4.36288">
        <ele>302.8</ele>
        <time>2025-05-13T16:02:08Z</time>
      </trkpt>
      <trkpt lat="44.6777" lon="4.36325">
        <ele>305.2</ele>
        <time>2025-05-13T16:02:08Z</time>
      </trkpt>
      <trkpt lat="44.67752" lon="4.36359">
        <ele>307.3</ele>
        <time>2025-05-13T16:02:08Z</time>
      </trkpt>
      <trkpt lat="44.67679" lon="4.36374">
        <ele>306.1</ele>
        <time>2025-05-13T16:02:08Z</time>
      </trkpt>
      <trkpt lat="44.67581" lon="4.36316">
        <ele>301.8</ele>
        <time>2025-05-13T16:02:08Z</time>
      </trkpt>
      <trkpt lat="44.67553" lon="4.36294">
        <ele>300.2</ele>
        <time>2025-05-13T16:02:08Z</time>
      </trkpt>
      <trkpt lat="44.67516" lon="4.36301">
        <ele>295.4</ele>
        <time>2025-05-13T16:02:08Z</time>
      </trkpt>
      <trkpt lat="44.67486" lon="4.3632">
        <ele>290</ele>
        <time>2025-05-13T16:02:08Z</time>
      </trkpt>
      <trkpt lat="44.67459" lon="4.36348">
        <ele>285</ele>
        <time>2025-05-13T16:02:08Z</time>
      </trkpt>
      <trkpt lat="44.67437" lon="4.36379">
        <ele>280.3</ele>
        <time>2025-05-13T16:02:08Z</time>
      </trkpt>
      <trkpt lat="44.67417" lon="4.36412">
        <ele>278.5</ele>
        <time>2025-05-13T16:02:08Z</time>
      </trkpt>
      <trkpt lat="44.67381" lon="4.36421">
        <ele>280.6</ele>
        <time>2025-05-13T16:02:08Z</time>
      </trkpt>
      <trkpt lat="44.67345" lon="4.36433">
        <ele>277.3</ele>
        <time>2025-05-13T16:02:08Z</time>
      </trkpt>
      <trkpt lat="44.67307" lon="4.36431">
        <ele>273.9</ele>
        <time>2025-05-13T16:02:08Z</time>
      </trkpt>
      <trkpt lat="44.67275" lon="4.36412">
        <ele>271.1</ele>
        <time>2025-05-13T16:02:08Z</time>
      </trkpt>
      <trkpt lat="44.67251" lon="4.36381">
        <ele>270.1</ele>
        <time>2025-05-13T16:02:08Z</time>
      </trkpt>
      <trkpt lat="44.67228" lon="4.36351">
        <ele>268.7</ele>
        <time>2025-05-13T16:02:08Z</time>
      </trkpt>
      <trkpt lat="44.67125" lon="4.3619">
        <ele>264.7</ele>
        <time>2025-05-13T16:02:08Z</time>
      </trkpt>
      <trkpt lat="44.67092" lon="4.36172">
        <ele>266.3</ele>
        <time>2025-05-13T16:02:08Z</time>
      </trkpt>
      <trkpt lat="44.66886" lon="4.36129">
        <ele>266.4</ele>
        <time>2025-05-13T16:02:08Z</time>
      </trkpt>
      <trkpt lat="44.66849" lon="4.36138">
        <ele>266.8</ele>
        <time>2025-05-13T16:02:08Z</time>
      </trkpt>
      <trkpt lat="44.66819" lon="4.36162">
        <ele>265.9</ele>
        <time>2025-05-13T16:02:08Z</time>
      </trkpt>
      <trkpt lat="44.66805" lon="4.36163">
        <ele>269.3</ele>
        <time>2025-05-13T16:02:08Z</time>
      </trkpt>
      <trkpt lat="44.66804" lon="4.36124">
        <ele>272.2</ele>
        <time>2025-05-13T16:02:08Z</time>
      </trkpt>
      <trkpt lat="44.66813" lon="4.36087">
        <ele>275.4</ele>
        <time>2025-05-13T16:02:08Z</time>
      </trkpt>
      <trkpt lat="44.66842" lon="4.36064">
        <ele>278</ele>
        <time>2025-05-13T16:02:08Z</time>
      </trkpt>
      <trkpt lat="44.66878" lon="4.36052">
        <ele>280.6</ele>
        <time>2025-05-13T16:02:08Z</time>
      </trkpt>
      <trkpt lat="44.66911" lon="4.36034">
        <ele>281.9</ele>
        <time>2025-05-13T16:02:08Z</time>
      </trkpt>
    </trkseg>
  </trk>
</gpx>